Warrensburg, MO

2:35 PM CDT on July 21, 2017 (GMT -0500)
Skyhaven

Weather History for KRCM - January, 2013

Change the Weather History Date:

Monday, January 28, 2013

  Actual Average (KSZL) Record (KSZL)
Temperature  
Mean Temperature 64 °F -  
Max Temperature 73 °F 38 °F 73 °F (2013)
Min Temperature 55 °F 21 °F -7 °F (1997)
Degree Days  
Heating Degree Days 1    
Growing Degree Days 14 (Base 50)    
Moisture  
Dew Point 55 °F    
Average Humidity 72    
Maximum Humidity 88    
Minimum Humidity 53    
Precipitation  
Precipitation 0.00 in - - ()
Sea Level Pressure  
Sea Level Pressure 29.81 in    
Wind  
Wind Speed 10 mph (South)    
Max Wind Speed 22 mph    
Max Gust Speed 31 mph    
Visibility 10 miles    
Events      
Averages and records for this station are not official NWS values.
T = Trace of Precipitation, MM = Missing Value Source: NWS Daily Summary

Daily Weather History Graph

Daily Weather History Graph

Search for Another Location

Airport or City:

Trip Planner

Search our weather history database for the weather conditions in past years. The results will help you decide how hot, cold, wet, or windy it might be!

Date:

Astronomy

Jan. 28, 2013 Rise Set
Actual Time 7:24 AM CST 5:32 PM CST
Civil Twilight 6:56 AM CST 6:00 PM CST
Nautical Twilight 6:23 AM CST 6:32 PM CST
Astronomical Twilight 5:52 AM CST 7:04 PM CST
Moon 7:26 PM CST (1/28) 7:51 AM CST (1/28)
Length of Visible Light 11h 04m
Length of Day
10h 08m
Full, 98% of the Moon is Illuminated
Jan 28
Full
Feb 3
Last Quarter
Feb 10
New
Feb 17
First Quarter
Feb 25
Full

Hourly Weather History & Observations

Time (CST) Temp. Dew Point Humidity Pressure Visibility Wind Dir Wind Speed Gust Speed Precip Events Conditions
12:15 AM 59.0 °F 51.8 °F 77% 29.86 in 10.0 mi SSE 6.9 mph - N/A   Overcast
12:35 AM 57.2 °F 51.8 °F 82% 29.85 in 10.0 mi South 8.1 mph - N/A   Overcast
12:55 AM 59.0 °F 51.8 °F 77% 29.85 in 10.0 mi South 9.2 mph - N/A   Overcast
1:15 AM 59.0 °F 53.6 °F 82% 29.85 in 10.0 mi South 8.1 mph - N/A   Overcast
1:35 AM 59.0 °F 53.6 °F 82% 29.85 in 10.0 mi South 9.2 mph - N/A   Overcast
1:55 AM 59.0 °F 53.6 °F 82% 29.85 in 10.0 mi South 11.5 mph - N/A   Overcast
2:15 AM 60.8 °F 53.6 °F 77% 29.85 in 10.0 mi South 11.5 mph 16.1 mph N/A   Overcast
2:35 AM 60.8 °F 53.6 °F 77% 29.85 in 10.0 mi South 9.2 mph - N/A   Overcast
2:55 AM 59.0 °F 53.6 °F 82% 29.85 in 10.0 mi South 10.4 mph - N/A   Overcast
3:15 AM 59.0 °F 53.6 °F 82% 29.85 in 10.0 mi South 10.4 mph - N/A   Overcast
3:35 AM 59.0 °F 53.6 °F 82% 29.85 in 10.0 mi South 8.1 mph - N/A   Overcast
3:55 AM 59.0 °F 53.6 °F 82% 29.85 in 10.0 mi South 5.8 mph - N/A   Overcast
4:15 AM 59.0 °F 53.6 °F 82% 29.86 in 10.0 mi South 5.8 mph - N/A   Overcast
4:35 AM 57.2 °F 51.8 °F 82% 29.86 in 10.0 mi South 4.6 mph - N/A   Overcast
4:55 AM 57.2 °F 51.8 °F 82% 29.86 in 10.0 mi SSE 3.5 mph - N/A   Overcast
5:15 AM 55.4 °F 51.8 °F 88% 29.86 in 10.0 mi SE 3.5 mph - N/A   Overcast
6:15 AM 55.4 °F 51.8 °F 88% 29.86 in 10.0 mi SSE 5.8 mph - N/A   Overcast
6:35 AM 55.4 °F 51.8 °F 88% 29.86 in 10.0 mi SE 5.8 mph - N/A   Overcast
6:55 AM 55.4 °F 51.8 °F 88% 29.87 in 10.0 mi SE 5.8 mph - N/A   Overcast
7:15 AM 55.4 °F 51.8 °F 88% 29.87 in 10.0 mi SE 5.8 mph - N/A   Overcast
7:35 AM 55.4 °F 51.8 °F 88% 29.87 in 10.0 mi SE 5.8 mph - N/A   Overcast
7:55 AM 55.4 °F 51.8 °F 88% 29.88 in 10.0 mi SE 5.8 mph - N/A   Overcast
8:15 AM 55.4 °F 51.8 °F 88% 29.88 in 10.0 mi SE 4.6 mph - N/A   Overcast
8:35 AM 55.4 °F 51.8 °F 88% 29.88 in 10.0 mi SE 3.5 mph - N/A   Overcast
8:55 AM 57.2 °F 53.6 °F 88% 29.88 in 10.0 mi SE 3.5 mph - N/A   Overcast
9:15 AM 57.2 °F 53.6 °F 88% 29.88 in 10.0 mi SE 3.5 mph - N/A   Overcast
9:35 AM 59.0 °F 53.6 °F 82% 29.88 in 10.0 mi Calm Calm - N/A   Overcast
9:55 AM 59.0 °F 53.6 °F 82% 29.88 in 10.0 mi SE 3.5 mph - N/A   Overcast
10:15 AM 60.8 °F 55.4 °F 82% 29.88 in 10.0 mi SE 4.6 mph - N/A   Overcast
10:35 AM 62.6 °F 55.4 °F 77% 29.87 in 10.0 mi SSE 5.8 mph - N/A   Mostly Cloudy
11:15 AM 66.2 °F 57.2 °F 73% 29.86 in 10.0 mi South 11.5 mph - N/A   Scattered Clouds
11:35 AM 69.8 °F 55.4 °F 60% 29.85 in 10.0 mi SSW 15.0 mph 23.0 mph N/A   Scattered Clouds
11:55 AM 69.8 °F 55.4 °F 60% 29.84 in 10.0 mi SSW 17.3 mph 25.3 mph N/A   Scattered Clouds
12:15 PM 71.6 °F 55.4 °F 57% 29.83 in 10.0 mi SSW 16.1 mph 24.2 mph N/A   Scattered Clouds
12:35 PM 71.6 °F 55.4 °F 57% 29.82 in 10.0 mi SSW 16.1 mph 24.2 mph N/A   Scattered Clouds
12:55 PM 71.6 °F 55.4 °F 57% 29.80 in 10.0 mi South 21.9 mph 26.5 mph N/A   Scattered Clouds
1:15 PM 71.6 °F 55.4 °F 57% 29.80 in 10.0 mi SSW 13.8 mph 25.3 mph N/A   Scattered Clouds
1:35 PM 73.4 °F 55.4 °F 53% 29.79 in 10.0 mi South 17.3 mph 25.3 mph N/A   Scattered Clouds
1:55 PM 71.6 °F 55.4 °F 57% 29.78 in 10.0 mi South 18.4 mph 23.0 mph N/A   Scattered Clouds
2:15 PM 71.6 °F 55.4 °F 57% 29.78 in 10.0 mi South 18.4 mph 26.5 mph N/A   Mostly Cloudy
2:35 PM 71.6 °F 55.4 °F 57% 29.78 in 10.0 mi South 15.0 mph 21.9 mph N/A   Mostly Cloudy
2:55 PM 71.6 °F 55.4 °F 57% 29.77 in 10.0 mi South 18.4 mph 31.1 mph N/A   Mostly Cloudy
3:15 PM 71.6 °F 57.2 °F 60% 29.78 in 10.0 mi South 16.1 mph 26.5 mph N/A   Mostly Cloudy
3:35 PM 71.6 °F 59.0 °F 64% 29.77 in 10.0 mi South 18.4 mph 26.5 mph N/A   Mostly Cloudy
3:55 PM 71.6 °F 57.2 °F 60% 29.77 in 10.0 mi South 12.7 mph - N/A   Scattered Clouds
4:15 PM 71.6 °F 57.2 °F 60% 29.76 in 10.0 mi South 11.5 mph 23.0 mph N/A   Mostly Cloudy
4:35 PM 69.8 °F 57.2 °F 64% 29.75 in 10.0 mi South 15.0 mph 19.6 mph N/A   Scattered Clouds
4:55 PM 69.8 °F 55.4 °F 60% 29.76 in 10.0 mi South 12.7 mph 23.0 mph N/A   Scattered Clouds
5:15 PM 69.8 °F 55.4 °F 60% 29.75 in 10.0 mi South 12.7 mph - N/A   Clear
5:35 PM 69.8 °F 55.4 °F 60% 29.74 in 10.0 mi South 12.7 mph 21.9 mph N/A   Clear
5:55 PM 69.8 °F 55.4 °F 60% 29.74 in 10.0 mi South 12.7 mph 18.4 mph N/A   Clear
6:35 PM 68.0 °F 55.4 °F 64% 29.74 in 10.0 mi SSE 13.8 mph - N/A   Clear
6:55 PM 68.0 °F 55.4 °F 64% 29.73 in 10.0 mi SSE 11.5 mph 19.6 mph N/A   Clear
7:15 PM 68.0 °F 55.4 °F 64% 29.73 in 10.0 mi South 12.7 mph - N/A   Scattered Clouds
7:35 PM 66.2 °F 55.4 °F 68% 29.73 in 10.0 mi SSE 16.1 mph - N/A   Clear
7:55 PM 66.2 °F 55.4 °F 68% 29.73 in 10.0 mi South 13.8 mph 20.7 mph N/A   Clear
8:15 PM 68.0 °F 55.4 °F 64% 29.73 in 10.0 mi South 15.0 mph 23.0 mph N/A   Clear
8:35 PM 68.0 °F 55.4 °F 64% 29.73 in 10.0 mi South 15.0 mph 26.5 mph N/A   Clear
8:55 PM 68.0 °F 55.4 °F 64% 29.73 in 10.0 mi South 15.0 mph - N/A   Mostly Cloudy
9:15 PM 68.0 °F 55.4 °F 64% 29.74 in 10.0 mi South 15.0 mph 23.0 mph N/A   Overcast
9:35 PM 68.0 °F 55.4 °F 64% 29.73 in 10.0 mi South 16.1 mph - N/A   Overcast
9:55 PM 68.0 °F 55.4 °F 64% 29.72 in 10.0 mi South 15.0 mph 25.3 mph N/A   Overcast
10:15 PM 68.0 °F 57.2 °F 68% 29.72 in 10.0 mi South 18.4 mph 26.5 mph N/A   Overcast
10:35 PM 68.0 °F 57.2 °F 68% 29.72 in 10.0 mi South 17.3 mph 25.3 mph N/A   Overcast
10:55 PM 68.0 °F 57.2 °F 68% 29.72 in 10.0 mi South 16.1 mph 23.0 mph N/A   Overcast
11:15 PM 66.2 °F 57.2 °F 73% 29.72 in 10.0 mi South 16.1 mph 24.2 mph N/A   Overcast
11:35 PM 66.2 °F 57.2 °F 73% 29.71 in 10.0 mi South 16.1 mph 21.9 mph N/A   Mostly Cloudy
11:55 PM 66.2 °F 57.2 °F 73% 29.71 in 10.0 mi South 16.1 mph 20.7 mph N/A   Mostly Cloudy